Thermal, CA

8:51 AM PST on February 24, 2018 (GMT -0800)
Desert Resorts Regional

Weather History for KTRM - November, 2011

Change the Weather History Date:

Saturday, November 19, 2011

  Actual Average Record
Temperature  
Mean Temperature 58 °F 59 °F  
Max Temperature 73 °F 77 °F 91 °F (1989)
Min Temperature 42 °F 41 °F 28 °F (2000)
Degree Days  
Heating Degree Days 7 6  
Month to date heating degree days 134 66  
Since 1 July heating degree days 139 77  
Cooling Degree Days 0 0  
Month to date cooling degree days 2 33  
Year to date cooling degree days 3797 3686  
Growing Degree Days 8 (Base 50)    
Moisture  
Dew Point 39 °F    
Average Humidity 57    
Maximum Humidity 82    
Minimum Humidity 31    
Precipitation  
Precipitation 0.00 in 0.00 in 0.11 in (1967)
Month to date precipitation 0.23 0.12  
Year to date precipitation 1.81 2.74  
Since 1 July precipitation 0.89  
Snow  
Snow 0.00 in - - ()
Month to date snowfall 0.0  
Year to date snowfall 0.0  
Snow Depth 0.00 in    
Sea Level Pressure  
Sea Level Pressure 29.81 in    
Wind  
Wind Speed 3 mph (NW)    
Max Wind Speed 12 mph    
Max Gust Speed 17 mph    
Visibility 10 miles    
Events      
T = Trace of Precipitation, MM = Missing Value Source: NWS Daily Summary

Daily Weather History Graph

Daily Weather History Graph

Search for Another Location

Airport or City:

Trip Planner

Search our weather history database for the weather conditions in past years. The results will help you decide how hot, cold, wet, or windy it might be!

Date:

Astronomy

Nov. 19, 2011 Rise Set
Actual Time 6:19 AM PST 4:39 PM PST
Civil Twilight 5:53 AM PST 5:06 PM PST
Nautical Twilight 5:23 AM PST 5:36 PM PST
Astronomical Twilight 4:53 AM PST 6:06 PM PST
Moon 12:03 AM PST (11/19) 12:44 PM PST (11/19)
Length of Visible Light 11h 13m
Length of Day
10h 19m
Last Quarter, 37% of the Moon is Illuminated
Nov 19
Last Quarter
Nov 24
New
Dec 2
First Quarter
Dec 10
Full
Dec 17
Last Quarter

Hourly Weather History & Observations

Time (PST) Temp. Dew Point Humidity Pressure Visibility Wind Dir Wind Speed Gust Speed Precip Events Conditions
12:52 AM 57.0 °F 41.0 °F 55% 29.77 in 10.0 mi Variable 5.8 mph - N/A   Clear
1:52 AM 52.0 °F 41.0 °F 66% 29.78 in 10.0 mi Calm Calm - N/A   Clear
3:52 AM 46.9 °F 39.0 °F 74% 29.78 in 10.0 mi SSW 3.5 mph - N/A   Clear
4:52 AM 46.0 °F 39.0 °F 76% 29.79 in 10.0 mi Calm Calm - N/A   Clear
5:52 AM 43.0 °F 37.0 °F 80% 29.80 in 10.0 mi Calm Calm - N/A   Clear
6:52 AM 45.0 °F 37.9 °F 76% 29.81 in 10.0 mi Calm Calm - N/A   Clear
7:52 AM 57.0 °F 43.0 °F 59% 29.83 in 10.0 mi Calm Calm - N/A   Clear
8:52 AM 63.0 °F 42.1 °F 46% 29.84 in 10.0 mi WSW 3.5 mph - N/A   Clear
9:52 AM 68.0 °F 41.0 °F 37% 29.84 in 10.0 mi Variable 4.6 mph - N/A   Clear
10:52 AM 70.0 °F 39.0 °F 32% 29.82 in 10.0 mi Variable 3.5 mph - N/A   Clear
11:52 AM 71.1 °F 39.9 °F 32% 29.80 in 10.0 mi Calm Calm - N/A   Clear
1:52 PM 72.0 °F 39.0 °F 30% 29.77 in 10.0 mi South 5.8 mph - N/A   Clear
2:52 PM 72.0 °F 41.0 °F 33% 29.77 in 10.0 mi Calm Calm - N/A   Partly Cloudy
3:52 PM 69.1 °F 37.0 °F 31% 29.78 in 10.0 mi West 6.9 mph - N/A   Clear
5:52 PM 63.0 °F 39.0 °F 41% 29.81 in 10.0 mi NNW 8.1 mph - N/A   Clear
6:52 PM 62.1 °F 39.0 °F 43% 29.83 in 10.0 mi NNW 12.7 mph - N/A   Clear
7:52 PM 61.0 °F 39.0 °F 44% 29.84 in 10.0 mi NNW 13.8 mph - N/A   Clear
8:52 PM 60.1 °F 39.0 °F 46% 29.85 in 10.0 mi NNW 16.1 mph 20.7 mph N/A   Clear
9:52 PM 59.0 °F 37.9 °F 46% 29.86 in 10.0 mi NNW 16.1 mph - N/A   Clear
10:52 PM 57.9 °F 39.0 °F 49% 29.86 in 10.0 mi NNW 12.7 mph - N/A   Clear
11:52 PM 57.9 °F 37.9 °F 47% 29.86 in 10.0 mi NNW 10.4 mph - N/A   Clear